sat.trackr.live / text

‹ back to catalog

STARLINK-36918

NORAD 67956 · 2026-037AA

PAYLOAD ACTIVE UNKNOWN

§ Identity

Operator
Country
US
Launch date
2026-02-24
Launch site
AFETR
Launch vehicle
Mass (kg)
RCS (m²)

Purposes: comms

External: N2YO · Heavens-Above · Gunter

§ Orbital elements

Epoch: 2026-05-25T04:58:20.496288Z

Period
94.27 min
Inclination
42.9991°
Eccentricity
0.0001583
Mean motion
15.27586291 rev/d
Perigee alt
481.9 km
Apogee alt
484.1 km
Semi-major
6,861.2 km
B*
5.8667e-4
RAAN
118.5337°
Arg perigee
268.6917°
Mean anomaly
91.3754°
Rev number
1,504

§ Raw data

STARLINK-369181 67956U 26037AA  26145.20718167  .00015920  00000+0  58667-3 0  99922 67956  42.9991 118.5337 0001583 268.6917  91.3754 15.27586291 15048

JSON: /api/v1/satellites/67956 · /tle

For live sub-satellite position, see the globe view (requires WebGL).

§ Visibility from observer

Set your observer location to see the next 7 days of passes ≥ 10°. The values pass through the URL so the page stays shareable.

No JS? Fill the form by hand. The geolocation button needs JavaScript.